SP6DW-13 Weather Reports


time (UTC)temp
F
wind
direction
speed
knots
gust
knots
rain 1hr
in
rain 24hr
in
rain mn
in
humidity
%
barometer
mb
20260504185536 68 115 0.9 1.7 0.00 0.00 0.00 57 1013.9
20260504184516 69 108 0.0 0.9 0.00 0.00 0.00 54 1013.8
20260504183516 70 102 0.0 0.9 0.00 0.00 0.00 52 1013.7
20260504182522 70 98 0.0 0.9 0.00 0.00 0.00 50 1013.6
20260504181539 71 52 0.9 2.6 0.00 0.00 0.00 48 1013.6
20260504180535 74 100 0.0 0.9 0.00 0.00 0.00 43 1013.5
20260504175516 75 104 0.0 0.9 0.00 0.00 0.00 40 1013.4
20260504174528 75 106 0.0 0.9 0.00 0.00 0.00 40 1013.4
20260504173518 75 55 0.0 1.7 0.00 0.00 0.00 39 1013.3
20260504171516 76 56 0.9 2.6 0.00 0.00 0.00 38 1013.4
20260504170516 76 43 0.9 3.5 0.00 0.00 0.00 38 1013.3
20260504151020 79 131 0.9 2.6 0.00 0.00 0.00 34 1013.6
20260504141016 79 104 0.9 3.5 0.00 0.00 0.00 34 1013.9
20260504081018 66 65 0.9 5.2 0.00 0.00 0.00 46 1015.9
20260504050016 59 104 0.0 0.9 0.00 0.00 0.00 52 1015.1
20260504045025 59 0.0 0.0 0.00 0.00 0.00 57 1015.1
20260504044016 58 0.0 0.0 0.00 0.00 0.00 56 1015.1
20260504043021 58 105 0.0 0.9 0.00 0.00 0.00 55 1015.1
20260504042016 57 0.0 0.0 0.00 0.00 0.00 57 1015.2
20260504041025 58 81 0.0 0.9 0.00 0.00 0.00 54 1015.2
20260504040022 58 81 0.0 0.9 0.00 0.00 0.00 56 1015.3
20260504035020 59 83 0.0 1.7 0.00 0.00 0.00 55 1015.3
20260504034022 59 0.0 0.0 0.00 0.00 0.00 54 1015.3
20260504033015 59 81 0.0 0.9 0.00 0.00 0.00 54 1015.3
20260504032015 59 0.0 0.0 0.00 0.00 0.00 52 1015.2
20260504031036 60 63 0.9 1.7 0.00 0.00 0.00 51 1015.2
20260504030016 60 55 0.0 1.7 0.00 0.00 0.00 49 1015.3
20260504025020 60 45 0.9 2.6 0.00 0.00 0.00 49 1015.2
20260504024016 60 62 0.0 1.7 0.00 0.00 0.00 50 1015.1
20260504023015 60 62 0.0 1.7 0.00 0.00 0.00 49 1015.1
20260504022020 61 44 0.9 2.6 0.00 0.00 0.00 48 1015.0
20260504021015 61 54 0.9 1.7 0.00 0.00 0.00 48 1015.1
20260504020016 62 50 0.9 2.6 0.00 0.00 0.00 47 1015.1
20260504015027 62 116 0.9 3.5 0.00 0.00 0.00 46 1014.9
20260504014016 62 129 0.9 2.6 0.00 0.00 0.00 46 1014.9
20260504013036 63 62 0.9 2.6 0.00 0.00 0.00 46 1014.9
20260504012015 63 119 0.0 1.7 0.00 0.00 0.00 46 1014.7
20260504011016 63 132 0.9 5.2 0.00 0.00 0.00 46 1014.6
20260504010016 63 35 0.9 2.6 0.00 0.00 0.00 46 1014.6
20260504005036 63 16 2.6 6.1 0.00 0.00 0.00 46 1014.6
20260504004016 64 53 0.9 2.6 0.00 0.00 0.00 44 1014.2
20260504003030 65 110 0.9 1.7 0.00 0.00 0.00 44 1014.1
20260504002045 66 115 0.0 1.7 0.00 0.00 0.00 42 1014.1
20260504001028 66 77 0.9 3.5 0.00 0.00 0.00 42 1014.1
20260504000028 66 60 0.9 5.2 0.00 0.00 0.00 42 1014.0
20260503235016 66 112 1.7 6.1 0.00 0.00 0.00 42 1014.0
20260503234017 66 126 1.7 7.0 0.00 0.00 0.00 42 1013.8
20260503233015 67 148 2.6 9.6 0.00 0.00 0.00 41 1013.6
20260503232032 67 164 2.6 7.8 0.00 0.00 0.00 41 1013.6
20260503231056 67 165 3.5 9.6 0.00 0.00 0.00 40 1013.6
20260503230016 67 160 3.5 12.2 0.00 0.00 0.00 41 1013.5
20260503225016 67 146 3.5 9.6 0.00 0.00 0.00 40 1013.4
20260503224016 67 172 3.5 8.7 0.00 0.00 0.00 41 1013.7
20260503223048 68 165 3.5 7.8 0.00 0.00 0.00 40 1013.7
20260503222015 68 151 2.6 11.3 0.00 0.00 0.00 40 1013.8
20260503221020 68 143 2.6 6.1 0.00 0.00 0.00 40 1013.8
20260503220023 68 164 3.5 13.0 0.00 0.00 0.00 40 1013.9
20260503215036 68 173 3.5 8.7 0.00 0.00 0.00 40 1013.9
20260503214016 69 157 3.5 8.7 0.00 0.00 0.00 39 1013.8
20260503213035 69 152 3.5 9.6 0.00 0.00 0.00 39 1013.8
20260503212030 69 148 2.6 7.0 0.00 0.00 0.00 39 1013.8
20260503211052 69 155 3.5 11.3 0.00 0.00 0.00 39 1013.9
20260503210026 70 169 3.5 7.8 0.00 0.00 0.00 39 1013.9
20260503205015 70 138 2.6 7.8 0.00 0.00 0.00 39 1014.0
20260503204016 70 171 3.5 7.0 0.00 0.00 0.00 38 1014.1
20260503203015 70 150 2.6 7.0 0.00 0.00 0.00 38 1014.0
20260503202026 70 149 2.6 7.8 0.00 0.00 0.00 38 1013.9
20260503201015 70 151 1.7 8.7 0.00 0.00 0.00 38 1014.1
20260503200023 70 160 2.6 7.0 0.00 0.00 0.00 38 1014.3
20260503195016 71 149 1.7 7.8 0.00 0.00 0.00 38 1014.3
20260503194016 71 144 1.7 3.5 0.00 0.00 0.00 37 1014.5
20260503193016 71 127 1.7 5.2 0.00 0.00 0.00 37 1014.4
20260503192016 71 139 2.6 6.1 0.00 0.00 0.00 36 1014.3
20260503191028 72 141 1.7 5.2 0.00 0.00 0.00 36 1014.4